TimeEST,TemperatureF,Dew PointF,Humidity,Sea Level PressureIn,VisibilityMPH,Wind Direction,Wind SpeedMPH,Gust SpeedMPH,PrecipitationIn,Events,Conditions,WindDirDegrees,DateUTC
12:53 AM,33.1,30.0,89,29.89,5.0,South,4.6,-,N/A,,Overcast,180,2014-01-16 05:53:00
1:53 AM,33.1,30.9,92,29.90,5.0,Calm,Calm,-,N/A,,Overcast,0,2014-01-16 06:53:00
2:26 AM,33.1,30.9,92,29.88,6.0,Calm,Calm,-,N/A,,Overcast,0,2014-01-16 07:26:00
2:53 AM,33.1,30.9,92,29.89,7.0,South,3.5,-,N/A,,Overcast,190,2014-01-16 07:53:00
3:19 AM,33.1,30.9,92,29.88,4.0,Calm,Calm,-,N/A,,Overcast,0,2014-01-16 08:19:00
3:53 AM,33.1,30.0,89,29.87,4.0,Calm,Calm,-,N/A,,Overcast,0,2014-01-16 08:53:00
4:03 AM,33.1,30.9,92,29.87,7.0,Calm,Calm,-,N/A,,Overcast,0,2014-01-16 09:03:00
4:11 AM,33.1,30.9,92,29.87,6.0,NNW,3.5,-,N/A,,Overcast,330,2014-01-16 09:11:00
4:53 AM,34.0,30.9,89,29.89,3.0,North,4.6,-,0.01,Snow,Light Snow,10,2014-01-16 09:53:00
5:53 AM,33.1,30.0,89,29.90,7.0,NNW,4.6,-,0.00,,Overcast,330,2014-01-16 10:53:00
6:53 AM,33.1,30.0,89,29.93,4.0,NNW,4.6,-,0.00,Snow,Light Snow,330,2014-01-16 11:53:00
7:15 AM,33.1,30.0,89,29.90,2.5,Calm,Calm,-,0.00,Snow,Light Snow,0,2014-01-16 12:15:00
7:28 AM,33.1,30.0,89,29.89,3.0,North,4.6,-,0.00,Snow,Light Snow,350,2014-01-16 12:28:00
7:50 AM,33.8,30.2,87,29.88,2.0,North,3.5,-,0.00,Snow,Light Snow,350,2014-01-16 12:50:00
7:53 AM,33.1,30.0,89,29.90,2.5,NNW,3.5,-,0.00,Snow,Light Snow,340,2014-01-16 12:53:00
8:00 AM,33.1,30.0,89,29.88,3.0,North,4.6,-,0.00,Snow,Light Snow,350,2014-01-16 13:00:00
8:02 AM,33.1,30.0,89,29.88,3.0,North,3.5,-,0.00,Snow,Light Snow,350,2014-01-16 13:02:00
8:36 AM,33.1,28.9,85,29.89,6.0,North,5.8,-,0.00,,Overcast,360,2014-01-16 13:36:00
8:53 AM,33.1,28.9,85,29.93,6.0,North,5.8,-,0.00,,Overcast,10,2014-01-16 13:53:00
9:24 AM,32.0,28.0,85,29.91,4.0,NNE,5.8,-,0.00,Snow,Light Snow,30,2014-01-16 14:24:00
9:34 AM,32.0,28.0,85,29.92,1.8,North,4.6,-,0.00,Snow,Light Snow,10,2014-01-16 14:34:00
9:43 AM,32.0,28.0,85,29.91,1.2,NE,5.8,-,0.01,Snow,Light Snow,40,2014-01-16 14:43:00
9:49 AM,32.0,28.4,87,29.92,2.0,NE,4.6,-,0.01,Snow,Light Snow,40,2014-01-16 14:49:00
9:53 AM,32.0,28.0,85,29.96,3.0,NE,4.6,-,0.01,Snow,Light Snow,50,2014-01-16 14:53:00
10:09 AM,32.0,28.0,85,29.92,1.8,NE,4.6,-,0.00,Snow,Light Snow,50,2014-01-16 15:09:00
10:22 AM,32.0,28.0,85,29.92,1.2,North,3.5,-,0.00,Snow,Light Snow,10,2014-01-16 15:22:00
10:34 AM,32.0,28.0,85,29.92,2.0,NW,3.5,-,0.00,Snow,Light Snow,320,2014-01-16 15:34:00
10:51 AM,32.0,28.4,87,29.91,1.2,North,5.8,-,0.00,Snow,Light Snow,350,2014-01-16 15:51:00
10:53 AM,32.0,28.0,85,29.94,1.0,North,5.8,-,0.00,Snow,Light Snow,360,2014-01-16 15:53:00
10:55 AM,32.0,28.9,88,29.91,0.8,North,3.5,-,0.01,Snow,Light Snow,10,2014-01-16 15:55:00
11:00 AM,32.0,28.9,88,29.91,1.2,NNE,3.5,-,0.01,Snow,Light Snow,20,2014-01-16 16:00:00
11:10 AM,32.0,28.9,88,29.90,1.2,North,3.5,-,0.01,Snow,Light Snow,10,2014-01-16 16:10:00
11:53 AM,32.0,28.0,85,29.94,1.2,North,4.6,-,0.01,,Overcast,350,2014-01-16 16:53:00
12:00 PM,32.0,28.0,85,29.90,5.0,North,3.5,-,N/A,,Overcast,10,2014-01-16 17:00:00
12:44 PM,32.0,28.9,88,29.88,4.0,Calm,Calm,-,N/A,,Overcast,0,2014-01-16 17:44:00
12:53 PM,33.1,28.0,82,29.91,5.0,West,4.6,-,N/A,,Haze,280,2014-01-16 17:53:00
1:04 PM,32.0,28.9,88,29.89,4.0,NNW,3.5,-,N/A,,Overcast,340,2014-01-16 18:04:00
1:39 PM,32.0,28.9,88,29.87,2.5,North,4.6,-,N/A,,Overcast,350,2014-01-16 18:39:00
1:53 PM,32.0,28.9,88,29.91,3.0,Calm,Calm,-,N/A,,Overcast,0,2014-01-16 18:53:00
2:32 PM,32.0,28.0,85,29.88,2.0,NNE,3.5,-,0.00,Snow,Light Snow,30,2014-01-16 19:32:00
2:40 PM,32.0,28.0,85,29.88,1.5,North,4.6,-,0.00,Snow,Light Snow,10,2014-01-16 19:40:00
2:53 PM,32.0,28.9,88,29.91,1.8,Calm,Calm,-,0.00,Snow,Light Snow,0,2014-01-16 19:53:00
3:01 PM,32.0,28.9,88,29.89,2.0,NNW,4.6,-,0.00,Snow,Light Snow,340,2014-01-16 20:01:00
3:08 PM,32.0,28.0,85,29.88,2.0,North,6.9,-,0.00,Snow,Light Snow,360,2014-01-16 20:08:00
3:20 PM,32.0,28.0,85,29.89,1.5,NNE,3.5,-,0.00,Snow,Light Snow,20,2014-01-16 20:20:00
3:23 PM,32.0,28.0,85,29.88,1.5,NNE,4.6,-,0.00,Snow,Light Snow,20,2014-01-16 20:23:00
3:53 PM,30.9,27.0,85,29.91,2.0,NNE,6.9,-,0.01,Snow,Light Snow,30,2014-01-16 20:53:00
4:00 PM,30.9,27.0,85,29.87,1.8,North,4.6,-,0.00,Snow,Light Snow,10,2014-01-16 21:00:00
4:20 PM,30.9,28.0,89,29.87,1.2,North,4.6,-,0.00,Snow,Light Snow,350,2014-01-16 21:20:00
4:50 PM,30.2,28.4,93,29.88,3.0,Calm,Calm,-,0.00,Snow,Light Snow,0,2014-01-16 21:50:00
4:51 PM,30.9,28.0,89,29.90,3.0,Calm,Calm,-,0.00,Snow,Light Snow,0,2014-01-16 21:51:00
5:53 PM,30.9,28.0,89,29.91,4.0,Calm,Calm,-,0.00,,Overcast,0,2014-01-16 22:53:00
6:17 PM,30.9,27.0,85,29.88,5.0,Calm,Calm,-,N/A,,Overcast,0,2014-01-16 23:17:00
6:53 PM,30.9,28.0,89,29.91,7.0,Calm,Calm,-,N/A,,Overcast,0,2014-01-16 23:53:00
7:29 PM,30.9,28.0,89,29.90,6.0,Calm,Calm,-,N/A,,Overcast,0,2014-01-17 00:29:00
7:53 PM,30.9,28.0,89,29.93,5.0,Calm,Calm,-,N/A,,Overcast,0,2014-01-17 00:53:00
8:04 PM,30.9,28.0,89,29.90,5.0,Calm,Calm,-,N/A,,Overcast,0,2014-01-17 01:04:00
8:23 PM,30.9,28.0,89,29.90,5.0,Calm,Calm,-,N/A,,Overcast,0,2014-01-17 01:23:00
8:53 PM,30.9,28.0,89,29.94,5.0,Calm,Calm,-,N/A,,Overcast,0,2014-01-17 01:53:00
9:27 PM,30.9,27.0,85,29.91,8.0,Calm,Calm,-,N/A,,Overcast,0,2014-01-17 02:27:00
9:53 PM,30.9,27.0,85,29.94,7.0,Calm,Calm,-,N/A,,Overcast,0,2014-01-17 02:53:00
10:53 PM,30.9,27.0,85,29.93,4.0,Calm,Calm,-,0.00,Snow,Light Snow,0,2014-01-17 03:53:00
11:34 PM,30.9,27.0,85,29.90,6.0,Calm,Calm,-,0.00,,Overcast,0,2014-01-17 04:34:00
11:53 PM,30.9,27.0,85,29.92,7.0,Calm,Calm,-,0.01,,Overcast,0,2014-01-17 04:53:00